(9) Metis
ephemeris date magn radius delta ra dec elong phase
Today27 Jun 202610.62.483 AU1.892 AU23h00m-13°47'113.8°22.0°
Opposition28 Aug 20269.22.401 AU1.399 AU22h41m-18°35'170.4°4.0°
(9) Metis - 2026-06-27
astro.vanbuitenen.nl


 
-1 year
-1 month
-1 day
Now
+1 day
+1 month
+1 year

The interactive orbit chart above shows the body's path through the solar system and its position at the given date. Green and blue lines are shown perpendicular to the ecliptic plane: Green if the path is above the ecliptic plane, blue if it is below. (Left-click and drag to rotate the view; Right-click and drag to move the view; Use scroll wheel to zoom in our out.)

The orbital elements of Metis are:

            e (Eccentricity)                : 0.1224892
            a (Semimajor axis)              : 2.3865669
            i (Inclination)                 : 5.57731
            Ω (Longitude of ascending node) : 68.86580
            ω (Argument of perihelion)      : 5.93234
            M (Mean anomaly)                : 252.61681
            Epoch                           : 2026 Jun 09

            L (Longitude of perihelion)     : 74.77025
            B (Latitude of perihelion)      : 0.57554
            P (Orbital period in years)     : 3.69            
        

The light curve chart below shows the estimated development of the minor planet's magnitude.


The all-sky chart below shows the path of the minor planet over the same period as the light curve. The current position is marked yellow.





The following chart shows the path of the minor planet in the next few days. The field of view is optimized for (~10x50) binoculars and finderscopes.




Ephemerides:
Date       Time       RA (2000)    DEC (2000)    delta   radius  elong  phase   PA    magn
2026-06-27 00:00 UT   23 00 51.8   -13 47 05     1.892    2.483  113.8   22.0   250   10.6 
2026-06-27 00:50 UT   23 00 52.8   -13 47 06     1.892    2.483  113.8   22.0   250   10.6 
2026-06-28 00:00 UT   23 01 20.2   -13 47 39     1.880    2.481  114.6   21.9   250   10.6 
2026-06-29 00:00 UT   23 01 47.3   -13 48 22     1.867    2.480  115.5   21.7   251   10.6 
2026-06-30 00:00 UT   23 02 13.0   -13 49 14     1.855    2.479  116.3   21.6   251   10.5 
2026-07-01 00:00 UT   23 02 37.4   -13 50 16     1.843    2.478  117.2   21.4   251   10.5 
2026-07-02 00:00 UT   23 03 00.3   -13 51 27     1.830    2.476  118.0   21.2   251   10.5 
2026-07-03 00:00 UT   23 03 21.9   -13 52 47     1.818    2.475  118.9   21.1   251   10.5 
2026-07-04 00:00 UT   23 03 42.0   -13 54 17     1.806    2.474  119.8   20.9   251   10.5 
2026-07-05 00:00 UT   23 04 00.6   -13 55 57     1.795    2.473  120.7   20.7   251   10.4 
2026-07-06 00:00 UT   23 04 17.8   -13 57 46     1.783    2.471  121.5   20.5   252   10.4 
2026-07-07 00:00 UT   23 04 33.5   -13 59 45     1.771    2.470  122.4   20.3   252   10.4 
2026-07-08 00:00 UT   23 04 47.7   -14 01 54     1.760    2.469  123.3   20.1   252   10.4 
2026-07-09 00:00 UT   23 05 00.3   -14 04 13     1.748    2.468  124.2   19.9   252   10.4 
2026-07-10 00:00 UT   23 05 11.4   -14 06 41     1.737    2.466  125.1   19.7   252   10.3 
2026-07-11 00:00 UT   23 05 20.9   -14 09 19     1.726    2.465  126.1   19.5   253   10.3 
2026-07-12 00:00 UT   23 05 28.8   -14 12 08     1.715    2.464  127.0   19.2   253   10.3 
2026-07-13 00:00 UT   23 05 35.2   -14 15 06     1.704    2.463  127.9   19.0   253   10.3 
2026-07-14 00:00 UT   23 05 39.9   -14 18 13     1.693    2.461  128.9   18.8   253   10.2 
2026-07-15 00:00 UT   23 05 43.0   -14 21 31     1.682    2.460  129.8   18.5   254   10.2 
2026-07-16 00:00 UT   23 05 44.4   -14 24 58     1.672    2.459  130.7   18.3   254   10.2 
2026-07-17 00:00 UT   23 05 44.2   -14 28 35     1.661    2.457  131.7   18.0   254   10.2 
2026-07-18 00:00 UT   23 05 42.4   -14 32 21     1.651    2.456  132.7   17.7   255   10.1 
2026-07-19 00:00 UT   23 05 38.9   -14 36 17     1.641    2.455  133.6   17.4   255   10.1 
2026-07-20 00:00 UT   23 05 33.8   -14 40 22     1.631    2.454  134.6   17.1   255   10.1 
2026-07-21 00:00 UT   23 05 26.9   -14 44 36     1.621    2.452  135.6   16.9   255   10.1 
2026-07-22 00:00 UT   23 05 18.4   -14 48 58     1.612    2.451  136.6   16.6   256   10.0 
2026-07-23 00:00 UT   23 05 08.2   -14 53 30     1.602    2.450  137.6   16.3   256   10.0 
2026-07-24 00:00 UT   23 04 56.4   -14 58 10     1.593    2.448  138.6   15.9   257   10.0 
2026-07-25 00:00 UT   23 04 42.9   -15 02 59     1.584    2.447  139.6   15.6   257   10.0 
2026-07-26 00:00 UT   23 04 27.7   -15 07 56     1.575    2.446  140.6   15.3   257   10.0 
2026-07-27 00:00 UT   23 04 10.8   -15 13 01     1.566    2.444  141.6   15.0   258    9.9 


    Terminology:
            
    delta:  distance between minor planet and earth in AU
    radius: distance between minor planet and sun in AU
    magn:   magnitude (brightness) estimate    
    ra:     right ascension in hours (24h = 360deg)
    dec:    declination in degrees
    elong:  elongation in degrees (angle sun-earth-minor planet)    
    phase:  phase angle in degrees (angle sun-minor planet-earth)        
    AU:     Astronomical Unit (mean distance between earth and sun: 149597870.7 km
    

Orbital elements provided by the MPC (Minor Planet Center).
Calculations by a modified version of AAPlus, a C# implementation of the AA+ project by PJ Naughter from the algorithms presented in the book "Astronomical Algorithms" by Jean Meeus.
NGC2000 dso catalog and star labels from VizieR as provided by the Strasbourg astronomical Data Center.
Tycho2 catalog from the ESO archive.